Weather in Gavrilova Polyana

Russia / Samara Oblast     53°21′56″N   50°07′35″E
temp.,
°C
wind,
m/s
gust,
m/s
humid.,
%
clouds,
%
prec.,
mm/h
press.,
hPa
HPBL,
m
28 february, sun
sun2801:00−11nnw51193100 0.3 1000368
04:00−13nnw5119298 0.6 1002425
07:00−15nnw5119299 0.3 1004403
10:00−15nnw5109299 0.3 1006371
13:00−13nw489199 0.0 1008446
16:00−13nw479099 0.1 1010487
19:00−16nw3893100 0.0 1012323
22:00−15nw389398 0.1 1014322
1 march, mon
mon101:00−15nw369495 0.1 1016255
04:00−19nnw359588 0.1 1018122
07:00−20nnw259674 0.0 101988
10:00−17nnw369238 0.0 1022291
13:00−13nnw348749 0.0 1022420
16:00−12nw248871 0.0 1022466
19:00−18wnw119452 0.0 102220
22:00−19wsw229626 0.0 102220
2 march, tue
tue201:00−18sw239957 0.0 102054
04:00−16sw399879 0.1 1017219
07:00−13sw41195100 0.1 1013366
10:00−9sw61294100 0.3 1010502
13:00−5sw71394100 0.6 1006696
16:00−3sw61296100 1.5 1003751
19:00−2sw51196100 1.6 1001635
22:00−1wsw3797100 2.2 1000284
3 march, wed
wed301:00−5w339584 0.0 99949
04:00−5w259676 0.1 1000118
07:00−4w3597100 0.2 1001155
10:00−2wnw3794100 0.6 1002509
13:00−1nw3697100 0.5 1003568
16:00−1nw4690100 0.6 1004712
19:00−2nw3891100 0.1 1005436
22:00−6nw369497 0.1 1008125
4 march, thu
thu401:00−6nw4119171 0.0 1009374
04:00−9nw389358 0.0 1011211
07:00−11wnw349521 0.0 101383
10:00−7w379112 0.0 1015373
13:00−5wsw479178 0.0 1014511
16:00−5sw6109289 0.1 1013605
19:00−4sw71492100 0.1 1011765
22:00−3sw71590100 0.1 1010801